Regional Weather Roundup
Issued by NWS Grand Forks, ND

Home | Current Version | Previous Version | Graphics & Text | Print | Product List | Glossary On
Versions: 1 2 3 4 5 6 7 8 9 10 11 12 13 14 15 16 17 18 19 20 21 22 23 24 25 26 27 28 29 30 31 32 33 34 35 36 37 38 39 40 41 42 43 44 45 46 47 48 49 50
000
ASUS43 KFGF 241210
RWRFGF
PRAIRIE TO PINES  WEATHER ROUNDUP
NATIONAL WEATHER SERVICE EASTERN NORTH DAKOTA/GRAND FORKS ND
700 AM CDT FRI OCT 24 2014

 **SATELLITE DATA USED TO AUGMENT SKY COVER AT AUTOMATED STATIONS**
 *****  WEATHER ACROSS EASTERN NORTH DAKOTA  *****

CITY           SKY/WX    TMP DP  RH WIND       PRES   REMARKS
GRAND FORKS    PTCLDY    40  35  83 S6        29.74S
6HR MIN TEMP:  39; 6HR MAX TEMP:  46;

GRAND FRKS AFB CLEAR     42  37  79 SW6       29.75S
GRAND FRKS NWS   N/A     41 N/A N/A S9          N/A
DEVILS LAKE    PTCLDY    48  36  61 SW5       29.74S
6HR MIN TEMP:  46; 6HR MAX TEMP:  52;

FARGO          MOCLDY    45  40  82 S6        29.80R
WAHPETON ARPT  CLOUDY    41  36  81 SE5       29.82S
$$

 ***** WEATHER ACROSS CENTRAL AND WESTERN NORTH DAKOTA  *****

CITY           SKY/WX    TMP DP  RH WIND       PRES   REMARKS
BISMARCK       CLOUDY    39  32  76 CALM      29.83S
6HR MIN TEMP:  38; 6HR MAX TEMP:  52;

MINOT          CLEAR     51  35  54 SW14      29.76R
6HR MIN TEMP:  48; 6HR MAX TEMP:  56;

JAMESTOWN      MOCLDY    40  35  83 S3        29.79F
6HR MIN TEMP:  38; 6HR MAX TEMP:  52;

MINOT AFB      PTCLDY    48  37  67 W8        29.75R
GARRISON         N/A     45  39  79 W3        29.81R
WILLISTON      MOCLDY    42  36  79 S5        29.82R
6HR MIN TEMP:  38; 6HR MAX TEMP:  47;

DICKINSON      MOCLDY    43  31  62 SW6       29.85R
6HR MIN TEMP:  38; 6HR MAX TEMP:  50;

HETTINGER      CLOUDY    41  28  60 NW3       29.89R
6HR MIN TEMP:  38; 6HR MAX TEMP:  47;

$$

 *****  OTHER AIRPORT OBSERVATIONS IN OUR AREA  *****

CITY           SKY/WX    TMP DP  RH WIND       PRES   REMARKS
WALHALLA         N/A     48  37  66 W3        29.70S
GRAFTON AIRPOR FAIR      45  37  76 W7        29.72F
VALLEY CITY AR FAIR      39  39 100 S5        29.80R
CANDO          FAIR      37  34  87 SW6       29.75F
CAVALIER APRT  FAIR      46  37  71 S7        29.71S
GWINNER        SUNNY     46  45  93 SW12      29.82R
ROLLA          FAIR      43  36  75 W3        29.74R
 ***** THE ABOVE OBSERVATIONS ARE NON NWS ARE NOT QUALITY
       CONTROLLED AND MAY MIS-REPORT RAIN FOR SNOW...
$$

  *****  WEATHER ACROSS NORTHERN MINNESOTA  *****

CITY           SKY/WX    TMP DP  RH WIND       PRES   REMARKS
FLAG ISLAND    CLOUDY    50  45  81 SE5       29.70R
WARROAD        CLOUDY    48  43  81 SW8       29.73S
ROSEAU         CLOUDY    46  41  81 S7        29.72S
HALLOCK        MOCLDY    45  37  76 S7        29.71S
THF RVR FALLS  PTCLDY    46  39  76 S10       29.75F
6HR MIN TEMP:  46; 6HR MAX TEMP:  52;

BAUDETTE       CLOUDY    49  41  74 SW6       29.73S
6HR MIN TEMP:  49; 6HR MAX TEMP:  52;

WASKISH        CLOUDY    55  45  67 CALM      29.75S
CROOKSTON      PTCLDY    43  39  87 S8        29.77S
STEPHEN NDAWN    N/A     45  37  76 S7          N/A
GREENBUSH NDAW   N/A     46  39  76 S7          N/A
$$
  *****  WEATHER ACROSS CENTRAL AND WEST MINNESOTA  *****

CITY           SKY/WX    TMP DP  RH WIND       PRES   REMARKS
FOSSTON        PTCLDY    45  39  81 CALM      29.78F
BEMIDJI        MOCLDY    50  42  74 S7        29.77F
PARK RAPIDS    MOCLDY    44  40  85 CALM      29.81F
6HR MIN TEMP:  44; 6HR MAX TEMP:  52;

ELBOW LAKE     FAIR      45  42  90 SE7       29.82F
6HR MIN TEMP:  45; 6HR MAX TEMP:  48;

WADENA         MOCLDY    43  39  87 CALM      29.82S
DETROIT LAKES  FAIR      45  43  93 S7        29.81F
MOORHEAD       MOCLDY    46  45  93 S10       29.80S
FERGUS FALLS   MOCLDY    45  39  81 SE6       29.83S
MORRIS MN      CLOUDY    43  41  93 SE7       29.82S
STAPLES        MOCLDY    43  39  87 CALM      29.84R
$$
  *****  WEATHER ELSEWHERE ACROSS MINNESOTA  *****

CITY           SKY/WX    TMP DP  RH WIND       PRES   REMARKS
DULUTH         CLOUDY    48  45  89 S8        29.87F FOG
6HR MIN TEMP:  47; 6HR MAX TEMP:  49;

INTRNTL FALLS  CLOUDY    52  42  69 SW3       29.74F
6HR MIN TEMP:  49; 6HR MAX TEMP:  53;

ELY            CLOUDY    48  45  87 S6        29.83F
CLOQUET        CLOUDY    46  45  93 S5        29.88S FOG
WHEATON        CLOUDY    37  36  93 CALM      29.85R
BRAINERD       CLOUDY    47  41  80 S6        29.85S
6HR MIN TEMP:  45; 6HR MAX TEMP:  51;

HIBBING        CLOUDY    40  38  93 SE3       29.84F FOG
6HR MIN TEMP:  36; 6HR MAX TEMP:  40;

ALEXANDRIA     MOCLDY    46  42  86 SE3       29.84F
6HR MIN TEMP:  45; 6HR MAX TEMP:  55;

SAINT CLOUD    CLOUDY    48  41  76 E5        29.86F
6HR MIN TEMP:  45; 6HR MAX TEMP:  51;

MINNEAPOLIS    CLOUDY    47  44  90 E8        29.90F
6HR MIN TEMP:  46; 6HR MAX TEMP:  48;

$$

  *****  WEATHER ACROSS SOUTH DAKOTA  *****

CITY           SKY/WX    TMP DP  RH WIND       PRES   REMARKS
SIOUX FALLS    MOCLDY    52  50  93 SW6       29.85R FOG
6HR MIN TEMP:  50; 6HR MAX TEMP:  56;

BROOKINGS      NOT AVBL
WATERTOWN      MOCLDY    42  41  96 CALM      29.84R
6HR MIN TEMP:  41; 6HR MAX TEMP:  48;

HURON          CLOUDY    38  36  92 NW3       29.84S
6HR MIN TEMP:  36; 6HR MAX TEMP:  50;

SISSETON         N/A     39  38  96 SW3       29.81S
ABERDEEN       CLOUDY    37  35  92 SW5       29.85R
6HR MIN TEMP:  33; 6HR MAX TEMP:  43;

MITCHELL       CLOUDY    46  40  79 W7        29.86S
PIERRE         CLOUDY    40  34  79 W6        29.86S
6HR MIN TEMP:  38; 6HR MAX TEMP:  46;

MOBRIDGE       CLOUDY    43  37  79 SE5       29.84R
RAPID CITY     CLOUDY    44  32  62 CALM      29.91S
6HR MIN TEMP:  42; 6HR MAX TEMP:  52;

$$

  *****  SOME WEATHER IN NEARBY STATES *****

CITY           SKY/WX    TMP DP  RH WIND       PRES   REMARKS
GLASGOW MT     PTCLDY    49  40  71 SW7       29.86R
6HR MIN TEMP:  47; 6HR MAX TEMP:  51; 6HR PCP: TRACE;

GREAT FALLS MT MOCLDY    47  35  63 SW13      29.98R
6HR MIN TEMP:  45; 6HR MAX TEMP:  49;

CHEYENNE WY    CLOUDY    56  27  32 W8        30.16S
6HR MIN TEMP:  49; 6HR MAX TEMP:  57;

SCOTTSBLUFF NE CLOUDY    47  37  68 NW7       30.03R
6HR MIN TEMP:  43; 6HR MAX TEMP:  49;

OMAHA NE       FOG       57  55  93 S13       29.94F VSB 3/4
6HR MIN TEMP:  54; 6HR MAX TEMP:  57;

DES MOINES IA  FOG       59  57  93 S10       29.98F VSB 1/8
6HR MIN TEMP:  51; 6HR MAX TEMP:  59;

DAVENPORT IA   FOG       50  49  96 SE6       30.05F VSB 1/4
6HR MIN TEMP:  40; 6HR MAX TEMP:  50;

CHICAGO IL     CLOUDY    53  45  74 W3        30.04F
6HR MIN TEMP:  53; 6HR MAX TEMP:  54;

EAU CLAIRE WI  CLOUDY    49  48  97 S7        29.97F
6HR MIN TEMP:  49; 6HR MAX TEMP:  50;

LA CROSSE WI   CLOUDY    51  50  96 S8        30.00S FOG
6HR MIN TEMP:  51; 6HR MAX TEMP:  51;

$$

  *****  SOME NATIONAL WEATHER *****

CITY           SKY/WX    TMP DP  RH WIND       PRES   REMARKS
LA GUARDIA NY  MOCLDY    52  44  74 NW10      29.81R
6HR MIN TEMP:  51; 6HR MAX TEMP:  53; 6HR PCP: TRACE;

RALEIGH NC     CLOUDY    46  41  82 CALM      30.03R
6HR MIN TEMP:  43; 6HR MAX TEMP:  51;

ATLANTA GA     MOCLDY    52  44  74 NE5       30.06R
6HR MIN TEMP:  50; 6HR MAX TEMP:  52;

NEW ORLEANS LA PTCLDY    60  51  72 NE7       30.09S
6HR MIN TEMP:  59; 6HR MAX TEMP:  64;

OKLAHOMA CITY  PTCLDY    57  54  89 S9        30.09R
6HR MIN TEMP:  57; 6HR MAX TEMP:  61;

ALBUQUERQUE NM PTCLDY    47  35  63 CALM      30.30R
6HR MIN TEMP:  47; 6HR MAX TEMP:  61;

SALT LAKE CITY PTCLDY    45  40  82 VRB3      30.12R
6HR MIN TEMP:  43; 6HR MAX TEMP:  55;

LOS ANGELES CA CLEAR     61  58  90 E3        29.95S



USA.gov is the U.S. government's official web portal to all federal, state and local government web resources and services.